Webcam & Metar

on

Mit unserer Webcam können Sie von überall die Situation auf dem Platz überblicken.  Sie können sowohl in Abflugrichtung Piste 26, als auch in Abflugrichtung Piste 08 die jeweilige Wetter- und Platzzitation einschätzen.

Weitere Informationen zum Platz erhalten Sie unter den Infos für Piloten.

Blick in Abflugrichtung Piste 26

Blick in Abflugrichtung Piste 08

Das aktuelle Metar für den in unmittelbarer Nähe zu Herzogenaurach gelegenen Flughafen Nürnberg EDDN:

EDDN 210720Z 09007KT 050V110 9999 OVC011 01/M01 Q1014 NOSIG